TAM8032 SBGR-SABE

Flight info

Callsign TAM8032
Flight time 2h 18m
Altitude 32000
Route UBSOD UZ38 UMDEX DCT CXS DCT UMRUD UN741 PAPIX PAPIX2Q
Aircraft A21N/M-SDE2E3FGHIRWXY/LB1

Departure

Time 2026-05-04 22:00
Airport São Paulo/Guarulhos–Governor André Franco Montoro International Airport (SBGR)

Arrival

Time 2026-05-05 00:18
Airport Aeroparque Jorge Newbery (SABE)
Time Latitude Longitude Altitude Speed Heading
2026-05-04 21:49 -23.42787 -46.47956 2447 ft 0 kts 265°
2026-05-04 21:55 -23.42788 -46.47942 2447 ft 2 kts 274°
2026-05-04 21:55 -23.42787 -46.47925 2447 ft 2 kts 266°
2026-05-04 21:55 -23.42787 -46.47909 2447 ft 2 kts 270°
2026-05-04 21:56 -23.42787 -46.47893 2447 ft 2 kts 268°
2026-05-04 21:56 -23.42786 -46.47876 2447 ft 2 kts 269°
2026-05-04 21:56 -23.42786 -46.47865 2447 ft 1 kts 270°
2026-05-04 21:56 -23.42783 -46.47856 2447 ft 1 kts 209°
2026-05-04 21:57 -23.42776 -46.47854 2447 ft 0 kts 166°
2026-05-04 21:57 -23.42771 -46.47855 2447 ft 0 kts 166°
2026-05-04 21:58 -23.42773 -46.47855 2447 ft 2 kts 167°
2026-05-04 21:58 -23.42930 -46.47817 2446 ft 32 kts 173°
2026-05-04 21:58 -23.43102 -46.47814 2447 ft 25 kts 213°
2026-05-04 21:58 -23.43163 -46.47978 2446 ft 26 kts 253°
2026-05-04 21:59 -23.43227 -46.48215 2447 ft 38 kts 252°
2026-05-04 21:59 -23.43387 -46.48341 2450 ft 26 kts 143°
2026-05-04 21:59 -23.43390 -46.48238 2452 ft 15 kts 70°
2026-05-04 21:59 -23.43304 -46.47888 2452 ft 81 kts 76°
2026-05-04 22:00 -23.43089 -46.47081 2450 ft 141 kts 74°
2026-05-04 22:00 -23.42785 -46.45942 2533 ft 177 kts 75°
2026-05-04 22:00 -23.42415 -46.44656 3088 ft 178 kts 74°
2026-05-04 22:00 -23.42074 -46.43499 3440 ft 184 kts 74°
2026-05-04 22:01 -23.41684 -46.42160 3875 ft 188 kts 74°
2026-05-04 22:01 -23.41286 -46.40768 3989 ft 216 kts 75°
2026-05-04 22:01 -23.40816 -46.39098 4200 ft 238 kts 74°
2026-05-04 22:01 -23.40334 -46.37300 4654 ft 252 kts 81°
2026-05-04 22:02 -23.40324 -46.35362 5109 ft 264 kts 101°
2026-05-04 22:02 -23.40866 -46.33396 5754 ft 270 kts 109°
2026-05-04 22:02 -23.41514 -46.31468 6467 ft 272 kts 110°
2026-05-04 22:02 -23.42173 -46.29528 7153 ft 275 kts 110°
2026-05-04 22:03 -23.42865 -46.27578 7825 ft 278 kts 117°
2026-05-04 22:03 -23.44100 -46.25957 8452 ft 281 kts 145°
2026-05-04 22:03 -23.45882 -46.25132 9098 ft 283 kts 172°
2026-05-04 22:03 -23.47698 -46.25188 9684 ft 285 kts 189°
2026-05-04 22:04 -23.49646 -46.25602 10287 ft 288 kts 192°
2026-05-04 22:04 -23.51680 -46.26062 10604 ft 303 kts 191°
2026-05-04 22:04 -23.53646 -46.26718 10848 ft 317 kts 207°
2026-05-04 22:04 -23.55419 -46.28227 11109 ft 331 kts 231°
2026-05-04 22:05 -23.56475 -46.30260 11341 ft 344 kts 252°
2026-05-04 22:05 -23.57044 -46.32844 11626 ft 358 kts 258°
2026-05-04 22:05 -23.57539 -46.35544 11875 ft 372 kts 258°
2026-05-04 22:05 -23.58061 -46.38369 12118 ft 385 kts 258°
2026-05-04 22:06 -23.58614 -46.41267 12360 ft 399 kts 258°
2026-05-04 22:06 -23.59183 -46.44177 12763 ft 406 kts 258°
2026-05-04 22:06 -23.59785 -46.47231 13382 ft 409 kts 258°
2026-05-04 22:06 -23.60359 -46.50135 13960 ft 412 kts 257°
2026-05-04 22:07 -23.60905 -46.53223 14538 ft 415 kts 260°
2026-05-04 22:07 -23.61381 -46.56356 15127 ft 419 kts 261°
2026-05-04 22:07 -23.61848 -46.59510 15709 ft 422 kts 261°
2026-05-04 22:07 -23.62390 -46.62664 16278 ft 426 kts 256°
2026-05-04 22:08 -23.63289 -46.65761 16852 ft 430 kts 248°
2026-05-04 22:08 -23.64509 -46.68598 17406 ft 433 kts 241°
2026-05-04 22:08 -23.66066 -46.71413 17978 ft 436 kts 238°
2026-05-04 22:08 -23.67717 -46.74210 18518 ft 440 kts 237°
2026-05-04 22:09 -23.69500 -46.76979 19040 ft 443 kts 231°
2026-05-04 22:09 -23.71605 -46.79425 19562 ft 446 kts 222°
2026-05-04 22:09 -23.74074 -46.81522 20078 ft 450 kts 213°
2026-05-04 22:09 -23.76737 -46.83288 20585 ft 452 kts 210°
2026-05-04 22:10 -23.79505 -46.85020 21064 ft 456 kts 210°
2026-05-04 22:10 -23.82259 -46.86728 21522 ft 459 kts 210°
2026-05-04 22:10 -23.85058 -46.88471 21985 ft 462 kts 210°
2026-05-04 22:10 -23.87836 -46.90211 22471 ft 464 kts 210°
2026-05-04 22:11 -23.90650 -46.91980 23115 ft 462 kts 210°
2026-05-04 22:11 -23.93390 -46.93708 23747 ft 460 kts 210°
2026-05-04 22:11 -23.96157 -46.95457 24320 ft 458 kts 210°
2026-05-04 22:11 -23.98914 -46.97201 24850 ft 458 kts 210°
2026-05-04 22:12 -24.01666 -46.98943 25364 ft 457 kts 210°
2026-05-04 22:12 -24.04429 -47.00694 25869 ft 456 kts 210°
2026-05-04 22:12 -24.07180 -47.02437 26353 ft 455 kts 210°
2026-05-04 22:12 -24.09926 -47.04178 26814 ft 454 kts 210°
2026-05-04 22:13 -24.12457 -47.05779 27222 ft 453 kts 210°
2026-05-04 22:13 -24.15199 -47.07509 27648 ft 452 kts 210°
2026-05-04 22:13 -24.17915 -47.09226 28050 ft 452 kts 210°
2026-05-04 22:13 -24.20623 -47.10943 28441 ft 451 kts 210°
2026-05-04 22:14 -24.23328 -47.12662 28818 ft 450 kts 210°
2026-05-04 22:14 -24.26029 -47.14393 29178 ft 449 kts 211°
2026-05-04 22:14 -24.28671 -47.16195 29523 ft 449 kts 212°
2026-05-04 22:14 -24.31291 -47.18015 29853 ft 448 kts 212°
2026-05-04 22:15 -24.33917 -47.19845 30173 ft 447 kts 212°
2026-05-04 22:15 -24.36562 -47.21689 30452 ft 448 kts 212°
2026-05-04 22:15 -24.39163 -47.23500 30680 ft 449 kts 212°
2026-05-04 22:15 -24.41816 -47.25348 30901 ft 450 kts 212°
2026-05-04 22:16 -24.44454 -47.27184 31124 ft 451 kts 212°
2026-05-04 22:16 -24.47089 -47.29019 31344 ft 452 kts 212°
2026-05-04 22:16 -24.49742 -47.30867 31561 ft 453 kts 212°
2026-05-04 22:16 -24.52401 -47.32719 31772 ft 454 kts 212°
2026-05-04 22:17 -24.55066 -47.34577 31949 ft 455 kts 212°
2026-05-04 22:17 -24.60424 -47.38315 31977 ft 456 kts 212°
2026-05-04 22:18 -24.65774 -47.42051 31979 ft 456 kts 212°
2026-05-04 22:18 -24.71084 -47.45762 31979 ft 456 kts 212°
2026-05-04 22:19 -24.76410 -47.49488 31979 ft 456 kts 212°
2026-05-04 22:19 -24.81771 -47.53243 31979 ft 456 kts 212°
2026-05-04 22:20 -24.87077 -47.56963 31979 ft 456 kts 212°
2026-05-04 22:20 -24.91732 -47.60229 31979 ft 456 kts 212°
2026-05-04 22:21 -24.97058 -47.63971 31979 ft 456 kts 212°
2026-05-04 22:21 -25.01703 -47.67249 31979 ft 456 kts 213°
2026-05-04 22:22 -25.07024 -47.71018 31980 ft 456 kts 213°
2026-05-04 22:22 -25.12282 -47.74724 31980 ft 456 kts 212°
2026-05-04 22:23 -25.17609 -47.78461 31979 ft 456 kts 212°
2026-05-04 22:23 -25.22935 -47.82211 31979 ft 456 kts 212°
2026-05-04 22:24 -25.28274 -47.85979 31979 ft 456 kts 212°
2026-05-04 22:24 -25.33595 -47.89749 31979 ft 456 kts 213°
2026-05-04 22:25 -25.38920 -47.93530 31980 ft 456 kts 213°
2026-05-04 22:25 -25.44241 -47.97306 31979 ft 456 kts 212°
2026-05-04 22:26 -25.49577 -48.01095 31979 ft 456 kts 212°
2026-05-04 22:26 -25.54886 -48.04866 31979 ft 456 kts 212°
2026-05-04 22:27 -25.60246 -48.08678 31979 ft 456 kts 212°
2026-05-04 22:27 -25.65563 -48.12467 31980 ft 456 kts 212°
2026-05-04 22:28 -25.70859 -48.16243 31979 ft 456 kts 212°
2026-05-04 22:28 -25.76165 -48.20025 31979 ft 456 kts 212°
2026-05-04 22:29 -25.81478 -48.23812 31979 ft 456 kts 212°
2026-05-04 22:29 -25.86804 -48.27613 31979 ft 456 kts 212°
2026-05-04 22:30 -25.92133 -48.31421 31979 ft 456 kts 212°
2026-05-04 22:30 -25.97430 -48.35209 31981 ft 456 kts 212°
2026-05-04 22:31 -26.02737 -48.39011 31979 ft 456 kts 212°
2026-05-04 22:31 -26.08060 -48.42827 31979 ft 456 kts 212°
2026-05-04 22:32 -26.13385 -48.46637 31980 ft 456 kts 212°
2026-05-04 22:32 -26.18731 -48.50458 31980 ft 456 kts 212°
2026-05-04 22:33 -26.24039 -48.54271 31980 ft 456 kts 212°
2026-05-04 22:33 -26.29335 -48.58086 31980 ft 456 kts 212°
2026-05-04 22:34 -26.34643 -48.61916 31980 ft 456 kts 212°
2026-05-04 22:34 -26.39954 -48.65754 31979 ft 456 kts 213°
2026-05-04 22:35 -26.45250 -48.69608 31979 ft 456 kts 213°
2026-05-04 22:35 -26.50562 -48.73500 31980 ft 456 kts 213°
2026-05-04 22:36 -26.55841 -48.77401 31980 ft 456 kts 213°
2026-05-04 22:36 -26.61126 -48.81297 31980 ft 456 kts 213°
2026-05-04 22:37 -26.66383 -48.85177 31979 ft 456 kts 213°
2026-05-04 22:37 -26.71711 -48.89089 31979 ft 456 kts 213°
2026-05-04 22:38 -26.77005 -48.92960 31979 ft 456 kts 213°
2026-05-04 22:38 -26.82284 -48.96820 31980 ft 456 kts 213°
2026-05-04 22:39 -26.87576 -49.00695 31980 ft 456 kts 213°
2026-05-04 22:39 -26.92860 -49.04567 31979 ft 456 kts 213°
2026-05-04 22:40 -26.98146 -49.08445 31979 ft 456 kts 213°
2026-05-04 22:40 -27.03466 -49.12351 31979 ft 456 kts 213°
2026-05-04 22:41 -27.08735 -49.16226 31979 ft 456 kts 213°
2026-05-04 22:41 -27.14026 -49.20108 31980 ft 456 kts 213°
2026-05-04 22:42 -27.19327 -49.23997 31980 ft 456 kts 213°
2026-05-04 22:42 -27.24632 -49.27904 31980 ft 456 kts 213°
2026-05-04 22:43 -27.29898 -49.31793 31980 ft 456 kts 213°
2026-05-04 22:43 -27.35161 -49.35685 31980 ft 456 kts 213°
2026-05-04 22:44 -27.40446 -49.39596 31980 ft 456 kts 213°
2026-05-04 22:44 -27.45751 -49.43527 31979 ft 456 kts 213°
2026-05-04 22:45 -27.51007 -49.47427 31980 ft 456 kts 213°
2026-05-04 22:45 -27.58584 -49.53851 31980 ft 456 kts 221°
2026-05-04 22:46 -27.63312 -49.58587 31979 ft 456 kts 221°
2026-05-04 22:46 -27.68028 -49.63341 31979 ft 456 kts 221°
2026-05-04 22:47 -27.72763 -49.68123 31979 ft 456 kts 222°
2026-05-04 22:47 -27.77463 -49.72884 31980 ft 456 kts 222°
2026-05-04 22:48 -27.82154 -49.77624 31980 ft 456 kts 222°
2026-05-04 22:48 -27.86893 -49.82411 31980 ft 456 kts 222°
2026-05-04 22:49 -27.91581 -49.87148 31980 ft 456 kts 221°
2026-05-04 22:49 -27.96317 -49.91938 31980 ft 456 kts 221°
2026-05-04 22:50 -28.01027 -49.96708 31980 ft 456 kts 221°
2026-05-04 22:50 -28.05667 -50.01412 31979 ft 456 kts 221°
2026-05-04 22:51 -28.10362 -50.06177 31979 ft 456 kts 221°
2026-05-04 22:51 -28.15086 -50.10951 31980 ft 456 kts 221°
2026-05-04 22:52 -28.19818 -50.15747 31980 ft 456 kts 221°
2026-05-04 22:52 -28.24522 -50.20533 31980 ft 456 kts 221°
2026-05-04 22:53 -28.29219 -50.25322 31980 ft 456 kts 222°
2026-05-04 22:53 -28.33915 -50.30117 31980 ft 456 kts 222°
2026-05-04 22:54 -28.38636 -50.34946 31980 ft 456 kts 222°
2026-05-04 22:54 -28.43321 -50.39743 31980 ft 456 kts 222°
2026-05-04 22:55 -28.48037 -50.44577 31979 ft 456 kts 222°
2026-05-04 22:55 -28.52704 -50.49369 31980 ft 456 kts 222°
2026-05-04 22:56 -28.57395 -50.54190 31979 ft 456 kts 222°
2026-05-04 22:56 -28.62098 -50.59030 31979 ft 456 kts 222°
2026-05-04 22:57 -28.66781 -50.63855 31979 ft 456 kts 222°
2026-05-04 22:57 -28.71472 -50.68713 31980 ft 456 kts 222°
2026-05-04 22:58 -28.76148 -50.73568 31980 ft 456 kts 222°
2026-05-04 22:58 -28.80820 -50.78407 31980 ft 456 kts 222°
2026-05-04 22:59 -28.85518 -50.83274 31980 ft 456 kts 222°
2026-05-04 22:59 -28.90184 -50.88111 31980 ft 456 kts 222°
2026-05-04 23:00 -28.94874 -50.92977 31980 ft 456 kts 222°
2026-05-04 23:00 -28.99566 -50.97852 31980 ft 456 kts 222°
2026-05-04 23:01 -29.04242 -51.02716 31979 ft 456 kts 222°
2026-05-04 23:01 -29.08925 -51.07589 31979 ft 456 kts 222°
2026-05-04 23:02 -29.13600 -51.12443 31980 ft 456 kts 222°
2026-05-04 23:02 -29.18226 -51.17368 31980 ft 456 kts 225°
2026-05-04 23:03 -29.22423 -51.22775 31980 ft 456 kts 231°
2026-05-04 23:03 -29.26306 -51.28496 31980 ft 456 kts 232°
2026-05-04 23:04 -29.30169 -51.34239 31980 ft 456 kts 232°
2026-05-04 23:04 -29.34040 -51.39989 31980 ft 456 kts 232°
2026-05-04 23:05 -29.37901 -51.45727 31980 ft 456 kts 232°
2026-05-04 23:05 -29.41754 -51.51455 31980 ft 456 kts 232°
2026-05-04 23:06 -29.45623 -51.57217 31980 ft 456 kts 232°
2026-05-04 23:06 -29.49474 -51.62958 31980 ft 456 kts 232°
2026-05-04 23:07 -29.53336 -51.68738 31979 ft 456 kts 233°
2026-05-04 23:07 -29.57174 -51.74504 31980 ft 456 kts 232°
2026-05-04 23:08 -29.61044 -51.80310 31980 ft 456 kts 232°
2026-05-04 23:08 -29.64879 -51.86063 31980 ft 456 kts 232°
2026-05-04 23:09 -29.68708 -51.91814 31980 ft 456 kts 232°
2026-05-04 23:09 -29.72556 -51.97599 31980 ft 456 kts 232°
2026-05-04 23:10 -29.76411 -52.03403 31979 ft 456 kts 232°
2026-05-04 23:10 -29.80234 -52.09168 31979 ft 456 kts 232°
2026-05-04 23:11 -29.84088 -52.14988 31979 ft 456 kts 232°
2026-05-04 23:11 -29.87902 -52.20756 31979 ft 456 kts 232°
2026-05-04 23:12 -29.91758 -52.26596 31979 ft 456 kts 232°
2026-05-04 23:12 -29.95564 -52.32366 31979 ft 456 kts 232°
2026-05-04 23:13 -29.99391 -52.38178 31979 ft 456 kts 232°
2026-05-04 23:13 -30.03207 -52.43983 31979 ft 456 kts 232°
2026-05-04 23:14 -30.07035 -52.49813 31979 ft 456 kts 232°
2026-05-04 23:14 -30.10856 -52.55637 31979 ft 456 kts 232°
2026-05-04 23:15 -30.14706 -52.61471 31980 ft 456 kts 232°
2026-05-04 23:15 -30.18527 -52.67295 31980 ft 456 kts 233°
2026-05-04 23:16 -30.22318 -52.73121 31979 ft 456 kts 233°
2026-05-04 23:16 -30.26128 -52.78979 31979 ft 456 kts 233°
2026-05-04 23:17 -30.29920 -52.84809 31979 ft 456 kts 233°
2026-05-04 23:17 -30.33725 -52.90665 31979 ft 456 kts 233°
2026-05-04 23:18 -30.37524 -52.96518 31979 ft 456 kts 233°
2026-05-04 23:18 -30.41334 -53.02397 31979 ft 456 kts 233°
2026-05-04 23:19 -30.45127 -53.08259 31980 ft 456 kts 233°
2026-05-04 23:19 -30.48935 -53.14153 31979 ft 456 kts 233°
2026-05-04 23:20 -30.52720 -53.20020 31979 ft 456 kts 233°
2026-05-04 23:20 -30.56509 -53.25901 31979 ft 456 kts 233°
2026-05-04 23:21 -30.60307 -53.31804 31979 ft 456 kts 233°
2026-05-04 23:21 -30.64075 -53.37670 31979 ft 456 kts 233°
2026-05-04 23:22 -30.67866 -53.43581 31979 ft 456 kts 233°
2026-05-04 23:22 -30.71643 -53.49478 31979 ft 456 kts 233°
2026-05-04 23:23 -30.75424 -53.55391 31979 ft 456 kts 233°
2026-05-04 23:23 -30.79202 -53.61308 31979 ft 456 kts 233°
2026-05-04 23:24 -30.83012 -53.67290 32332 ft 457 kts 233°
2026-05-04 23:24 -30.84892 -53.70256 32679 ft 455 kts 233°
2026-05-04 23:24 -30.86772 -53.73224 32981 ft 453 kts 233°
2026-05-04 23:25 -30.88645 -53.76178 33237 ft 453 kts 233°
2026-05-04 23:25 -30.90506 -53.79110 33475 ft 453 kts 233°
2026-05-04 23:25 -30.92376 -53.82059 33711 ft 452 kts 233°
2026-05-04 23:25 -30.94239 -53.84995 33941 ft 452 kts 233°
2026-05-04 23:26 -30.96093 -53.87921 34165 ft 451 kts 233°
2026-05-04 23:26 -30.97963 -53.90872 34389 ft 451 kts 233°
2026-05-04 23:26 -30.99817 -53.93802 34603 ft 450 kts 233°
2026-05-04 23:26 -31.01664 -53.96720 34807 ft 450 kts 233°
2026-05-04 23:27 -31.03520 -53.99656 35005 ft 449 kts 233°
2026-05-04 23:27 -31.05372 -54.02588 35197 ft 449 kts 233°
2026-05-04 23:27 -31.07215 -54.05507 35379 ft 449 kts 233°
2026-05-04 23:27 -31.09051 -54.08416 35556 ft 448 kts 233°
2026-05-04 23:28 -31.10910 -54.11362 35728 ft 448 kts 233°
2026-05-04 23:28 -31.12753 -54.14264 35890 ft 448 kts 233°
2026-05-04 23:28 -31.16440 -54.20086 35972 ft 448 kts 233°
2026-05-04 23:29 -31.20122 -54.25934 35976 ft 447 kts 233°
2026-05-04 23:29 -31.23804 -54.31802 35976 ft 447 kts 233°
2026-05-04 23:30 -31.27486 -54.37680 35976 ft 447 kts 233°
2026-05-04 23:30 -31.31156 -54.43545 35976 ft 447 kts 233°
2026-05-04 23:31 -31.34833 -54.49433 35976 ft 447 kts 233°
2026-05-04 23:31 -31.38488 -54.55293 35976 ft 447 kts 233°
2026-05-04 23:32 -31.42185 -54.61153 35976 ft 447 kts 231°
2026-05-04 23:32 -31.46260 -54.66608 35976 ft 447 kts 226°
2026-05-04 23:33 -31.50767 -54.71633 35976 ft 447 kts 223°
2026-05-04 23:33 -31.55352 -54.76563 35976 ft 447 kts 223°
2026-05-04 23:34 -31.59930 -54.81493 35976 ft 448 kts 223°
2026-05-04 23:34 -31.64503 -54.86427 35976 ft 448 kts 223°
2026-05-04 23:35 -31.69105 -54.91402 35976 ft 448 kts 223°
2026-05-04 23:35 -31.73662 -54.96337 35976 ft 448 kts 223°
2026-05-04 23:36 -31.78241 -55.01302 35976 ft 448 kts 223°
2026-05-04 23:36 -31.82798 -55.06250 35976 ft 448 kts 223°
2026-05-04 23:37 -31.87390 -55.11244 35976 ft 448 kts 223°
2026-05-04 23:37 -31.91952 -55.16212 35976 ft 448 kts 223°
2026-05-04 23:38 -31.96495 -55.21165 35976 ft 448 kts 223°
2026-05-04 23:38 -32.01060 -55.26152 35976 ft 448 kts 223°
2026-05-04 23:39 -32.05625 -55.31144 35976 ft 448 kts 223°
2026-05-04 23:39 -32.10178 -55.36129 35976 ft 448 kts 223°
2026-05-04 23:40 -32.14773 -55.41141 35976 ft 448 kts 222°
2026-05-04 23:40 -32.19324 -55.46117 35976 ft 448 kts 223°
2026-05-04 23:41 -32.23871 -55.51110 35976 ft 448 kts 223°
2026-05-04 23:41 -32.28429 -55.56128 35976 ft 448 kts 223°
2026-05-04 23:42 -32.32982 -55.61150 35976 ft 448 kts 223°
2026-05-04 23:42 -32.37540 -55.66187 35976 ft 448 kts 223°
2026-05-04 23:43 -32.42051 -55.71207 35976 ft 448 kts 223°
2026-05-04 23:43 -32.46583 -55.76243 35976 ft 448 kts 223°
2026-05-04 23:44 -32.51107 -55.81268 35976 ft 448 kts 223°
2026-05-04 23:44 -32.55673 -55.86341 35976 ft 448 kts 223°
2026-05-04 23:45 -32.60218 -55.91399 35977 ft 454 kts 223°
2026-05-04 23:45 -32.64839 -55.96547 35977 ft 460 kts 223°
2026-05-04 23:46 -32.69521 -56.01772 35976 ft 465 kts 223°
2026-05-04 23:46 -32.74248 -56.07054 35976 ft 465 kts 223°
2026-05-04 23:47 -32.78928 -56.12291 35976 ft 465 kts 223°
2026-05-04 23:47 -32.83633 -56.17562 35976 ft 465 kts 223°
2026-05-04 23:48 -32.88325 -56.22826 35976 ft 465 kts 223°
2026-05-04 23:48 -32.93016 -56.28093 35976 ft 465 kts 223°
2026-05-04 23:49 -32.97709 -56.33375 35976 ft 465 kts 223°
2026-05-04 23:49 -33.02398 -56.38689 35976 ft 465 kts 223°
2026-05-04 23:50 -33.07057 -56.43984 35976 ft 465 kts 223°
2026-05-04 23:50 -33.11763 -56.49320 35976 ft 465 kts 223°
2026-05-04 23:51 -33.16443 -56.54616 35976 ft 465 kts 223°
2026-05-04 23:51 -33.21139 -56.59961 35976 ft 465 kts 223°
2026-05-04 23:52 -33.25798 -56.65276 35976 ft 465 kts 224°
2026-05-04 23:52 -33.30559 -56.70742 35976 ft 465 kts 224°
2026-05-04 23:53 -33.35219 -56.76093 35976 ft 465 kts 224°
2026-05-04 23:53 -33.39903 -56.81465 35976 ft 465 kts 224°
2026-05-04 23:54 -33.44598 -56.86855 35976 ft 465 kts 224°
2026-05-04 23:54 -33.49308 -56.92267 35976 ft 465 kts 224°
2026-05-04 23:55 -33.53817 -56.97457 35976 ft 465 kts 224°
2026-05-04 23:56 -33.60591 -57.05267 35976 ft 465 kts 224°
2026-05-04 23:56 -33.65226 -57.10622 35976 ft 465 kts 224°
2026-05-04 23:57 -33.69888 -57.16016 35976 ft 465 kts 224°
2026-05-04 23:57 -33.74547 -57.21414 35976 ft 465 kts 224°
2026-05-04 23:58 -33.79182 -57.26791 35976 ft 465 kts 224°
2026-05-04 23:58 -33.83823 -57.32180 35976 ft 465 kts 224°
2026-05-04 23:59 -33.88436 -57.37550 35976 ft 465 kts 224°
2026-05-04 23:59 -33.93079 -57.42977 35976 ft 465 kts 224°
2026-05-05 00:00 -33.97695 -57.48381 35976 ft 465 kts 224°
2026-05-05 00:00 -34.02331 -57.53809 35976 ft 465 kts 224°
2026-05-05 00:01 -34.06933 -57.59203 35976 ft 465 kts 224°
2026-05-05 00:01 -34.11560 -57.64629 35976 ft 465 kts 224°
2026-05-05 00:01 -34.13883 -57.67347 35960 ft 454 kts 224°
2026-05-05 00:02 -34.16103 -57.69958 35680 ft 438 kts 224°
2026-05-05 00:02 -34.18245 -57.72480 35023 ft 428 kts 224°
2026-05-05 00:02 -34.20346 -57.74955 34452 ft 418 kts 224°
2026-05-05 00:02 -34.22403 -57.77380 33895 ft 408 kts 224°
2026-05-05 00:03 -34.24417 -57.79755 33186 ft 403 kts 224°
2026-05-05 00:03 -34.26384 -57.82075 32423 ft 400 kts 224°
2026-05-05 00:03 -34.28372 -57.84421 31753 ft 393 kts 224°
2026-05-05 00:03 -34.30283 -57.86678 31196 ft 385 kts 224°
2026-05-05 00:04 -34.32192 -57.88933 30478 ft 382 kts 224°
2026-05-05 00:04 -34.34082 -57.91167 29281 ft 392 kts 224°
2026-05-05 00:04 -34.36041 -57.93488 27917 ft 406 kts 224°
2026-05-05 00:04 -34.38157 -57.95998 26650 ft 437 kts 225°
2026-05-05 00:05 -34.40074 -57.98874 25374 ft 455 kts 241°
2026-05-05 00:05 -34.41104 -58.02359 24150 ft 459 kts 261°
2026-05-05 00:05 -34.41125 -58.06236 22898 ft 461 kts 276°
2026-05-05 00:05 -34.40671 -58.10036 21657 ft 461 kts 279°
2026-05-05 00:06 -34.40136 -58.13834 20389 ft 451 kts 279°
2026-05-05 00:06 -34.39668 -58.17196 19247 ft 443 kts 279°
2026-05-05 00:06 -34.39184 -58.20837 17989 ft 435 kts 279°
2026-05-05 00:06 -34.38725 -58.24450 16718 ft 427 kts 278°
2026-05-05 00:07 -34.38292 -58.27947 15468 ft 420 kts 278°
2026-05-05 00:07 -34.37869 -58.31400 14210 ft 412 kts 279°
2026-05-05 00:07 -34.37128 -58.34672 12952 ft 405 kts 291°
2026-05-05 00:07 -34.35996 -58.37785 11688 ft 399 kts 295°
2026-05-05 00:08 -34.34826 -58.40750 10442 ft 392 kts 295°
2026-05-05 00:08 -34.33649 -58.43688 9184 ft 386 kts 296°
2026-05-05 00:08 -34.32479 -58.46599 7917 ft 380 kts 296°
2026-05-05 00:08 -34.31350 -58.49403 6758 ft 372 kts 296°
2026-05-05 00:09 -34.30239 -58.52158 5891 ft 357 kts 296°
2026-05-05 00:09 -34.29172 -58.54806 5308 ft 337 kts 296°
2026-05-05 00:09 -34.28172 -58.57283 5022 ft 311 kts 296°
2026-05-05 00:09 -34.27255 -58.59557 4990 ft 281 kts 296°
2026-05-05 00:10 -34.26431 -58.61599 4991 ft 266 kts 295°
2026-05-05 00:10 -34.25915 -58.63627 4965 ft 267 kts 270°
2026-05-05 00:10 -34.26385 -58.65768 4988 ft 267 kts 238°
2026-05-05 00:10 -34.27474 -58.67610 4997 ft 268 kts 233°
2026-05-05 00:11 -34.28597 -58.69409 4993 ft 267 kts 233°
2026-05-05 00:11 -34.29657 -58.71191 4986 ft 254 kts 235°
2026-05-05 00:11 -34.30793 -58.72772 4870 ft 244 kts 216°
2026-05-05 00:11 -34.32295 -58.73612 4730 ft 235 kts 190°
2026-05-05 00:12 -34.33917 -58.73586 4589 ft 233 kts 165°
2026-05-05 00:12 -34.35371 -58.72733 4441 ft 233 kts 140°
2026-05-05 00:12 -34.36548 -58.71361 4313 ft 233 kts 133°
2026-05-05 00:12 -34.37658 -58.69923 4138 ft 232 kts 133°
2026-05-05 00:13 -34.38756 -58.68502 4073 ft 231 kts 133°
2026-05-05 00:13 -34.39870 -58.67084 4043 ft 232 kts 134°
2026-05-05 00:13 -34.40994 -58.65669 3973 ft 232 kts 134°
2026-05-05 00:13 -34.42124 -58.64256 3820 ft 231 kts 134°
2026-05-05 00:14 -34.43234 -58.62871 3673 ft 230 kts 134°
2026-05-05 00:14 -34.44359 -58.61468 3503 ft 230 kts 134°
2026-05-05 00:14 -34.45478 -58.60071 3247 ft 232 kts 134°
2026-05-05 00:14 -34.46511 -58.58558 2908 ft 231 kts 125°
2026-05-05 00:15 -34.47383 -58.56995 2771 ft 214 kts 123°
2026-05-05 00:15 -34.48186 -58.55505 2510 ft 206 kts 123°
2026-05-05 00:15 -34.48974 -58.54064 2241 ft 205 kts 124°
2026-05-05 00:15 -34.49770 -58.52631 1972 ft 204 kts 124°
2026-05-05 00:16 -34.50538 -58.51252 1729 ft 189 kts 124°
2026-05-05 00:16 -34.51253 -58.49969 1508 ft 179 kts 124°
2026-05-05 00:16 -34.51930 -58.48751 1252 ft 168 kts 124°
2026-05-05 00:16 -34.52570 -58.47602 1019 ft 159 kts 124°
2026-05-05 00:17 -34.53177 -58.46485 839 ft 160 kts 123°
2026-05-05 00:17 -34.53809 -58.45367 601 ft 157 kts 124°
2026-05-05 00:17 -34.54376 -58.44339 355 ft 148 kts 124°
2026-05-05 00:17 -34.54954 -58.43304 181 ft 149 kts 124°
2026-05-05 00:18 -34.55541 -58.42264 38 ft 145 kts 124°
2026-05-05 00:18 -34.56051 -58.41351 27 ft 106 kts 124°
2026-05-05 00:18 -34.56323 -58.40852 27 ft 48 kts 122°
2026-05-05 00:18 -34.56379 -58.40677 27 ft 9 kts 27°
2026-05-05 00:19 -34.56338 -58.40681 27 ft 0 kts 338°
2026-05-05 00:19 -34.56334 -58.40683 27 ft 0 kts 329°
2026-05-05 00:19 -34.56325 -58.40690 27 ft 2 kts 324°
2026-05-05 00:19 -34.56305 -58.40711 27 ft 8 kts 319°
2026-05-05 00:20 -34.56210 -58.40822 27 ft 28 kts 304°
2026-05-05 00:20 -34.56062 -58.41081 27 ft 46 kts 308°
2026-05-05 00:20 -34.55852 -58.41304 27 ft 33 kts 350°
2026-05-05 00:20 -34.55777 -58.41418 27 ft 18 kts 304°
2026-05-05 00:21 -34.55725 -58.41452 27 ft 5 kts 20°
2026-05-05 00:21 -34.55694 -58.41442 27 ft 0 kts 13°